Regional Weather Roundup
Issued by NWS

Home | Current Version | Previous Version | Text Only | Print | Product List | Glossary Off
Versions: 1 2 3 4 5 6 7 8 9 10 11 12 13 14 15 16 17 18 19 20 21 22 23 24 25 26 27 28 29 30 31 32 33 34 35 36 37 38 39 40 41 42 43 44 45 46 47 48 49 50

000
ASUS43 KLMK 270210
RWRKY
KENTUCKY REGIONAL WEATHER ROUNDUP
NATIONAL WEATHER SERVICE LOUISVILLE KY
900 PM EST FRI DEC 26 2014

NOTE "FAIR" INDICATES FEW OR NO CLOUDS BELOW 12,000 FEET
WITH NO SIGNIFICANT WEATHER AND/OR OBSTRUCTIONS TO VISIBILITY.

KYZ001>023-026-027-061>063-070>075-270300-
WESTERN AND SOUTH CENTRAL KENTUCKY

CITY           SKY/WX    TMP DP  RH WIND       PRES   REMARKS
PADUCAH        MOCLDY    47  37  68 S6        30.14S
HENDERSON      CLOUDY    48  37  66 S9        30.14R
OWENSBORO      PTCLDY    47  38  71 S9        30.15F
HOPKINSVILLE   CLOUDY    48  37  65 S7        30.19R
BOWLING GREEN  CLEAR     48  35  60 S8        30.21S
GLASGOW        PTCLDY    47  35  62 S3        30.21S
$$

KYZ024-025-028>034-038-045-046-053-270300-
NORTH CENTRAL KENTUCKY

CITY           SKY/WX    TMP DP  RH WIND       PRES   REMARKS
LOUISVILLE/SDF MOCLDY    49  35  58 S7        30.17S
LOUISVILLE/LOU PTCLDY    46  34  62 CALM      30.18R
FORT KNOX      PTCLDY    46  36  68 S9        30.16S
$$

KYZ035>037-039>044-047>052-055>060-089>105-270300-
NORTHEAST KENTUCKY

CITY           SKY/WX    TMP DP  RH WIND       PRES   REMARKS
LEXINGTON      CLOUDY    44  33  65 S8        30.20S
COVINGTON      CLOUDY    44  32  62 S7        30.17S
FRANKFORT      MOCLDY    46  32  58 S6        30.19S
$$

KYZ054-064>069-076>088-106>120-270300-
SOUTHEAST KENTUCKY

CITY           SKY/WX    TMP DP  RH WIND       PRES   REMARKS
JACKSON        CLOUDY    49  24  37 VRB3      30.18F
LONDON         CLOUDY    47  28  47 SW3       30.22R
SOMERSET       MOCLDY    43  32  65 S3        30.25R
MIDDLESBORO    CLOUDY    41  36  81 CALM      30.25F
MONTICELLO     MOCLDY    45  36  70 CALM      30.25S
$$



USA.gov is the U.S. government's official web portal to all federal, state and local government web resources and services.